Location: Berlín
(9.6792°N, 75.5212°W)
Time: 00:34:54
(UTC+00:00)

Daily predictions for brighter satellites

Satellite Brightness Start Highest point End
(mag) Time Altitude Azimuth Time Altitude Azimuth Time Altitude Azimuth
DELTA 2 R/B (1) 4.1 00:01:17 10° SSW 00:06:26 40° SE 00:07:01 38° ESE
USA 215 4.3 00:00:27 10° SSE 00:06:34 44° SW 00:12:43 10° NW
Cosmos 2151 Rocket 3.4 00:03:17 10° S 00:07:39 71° E 00:08:04 66° NE
Hubble Space Telescope 3.3 00:06:10 10° WSW 00:08:28 15° SSW 00:10:44 10° S
Cosmos 1943 Rocket 3.1 00:09:52 10° SW 00:15:15 46° WNW 00:20:25 11° N
Cosmos 44 Rocket 3.7 00:13:39 10° SW 00:18:09 55° WNW 00:19:30 40° NNW
Cosmos 909 Rocket 4.4 00:17:34 10° NNW 00:24:06 75° WSW 00:32:02 10° SSE
Geosat 3.9 00:21:51 10° SSE 00:26:51 84° WSW 00:31:50 10° NNW
Ariane H10-3 3.5 00:24:37 10° W 00:26:09 37° WSW 00:26:09 37° WSW
Mugunghwa Rocket 4.4 00:22:58 10° NW 00:29:33 51° NNE 00:29:34 51° NNE
SJ 16-02 3.4 00:44:46 10° SSW 00:46:30 23° SW 00:46:30 23° SW
Atlas Centaur 2 4.2 00:46:49 10° W 00:51:04 22° SSW 00:53:44 17° S
ATLAS 5 CENTAUR R/B 4.2 00:49:31 10° S 00:49:32 10° S 00:49:32 10° S
USA 234 4.0 00:53:02 41° NNW 00:54:20 45° NW 01:00:29 10° WSW
VEP-3 3.8 00:52:18 10° NW 00:55:45 33° NNW 00:55:45 33° NNW
Centaur D AC-29 4.5 01:02:34 10° W 01:11:06 65° NNW 11:08:09 10° SE
Ariane H10+ 4.4 01:07:34 10° SW 01:08:30 15° SSW 01:08:30 15° SSW
Intelsat 5-1 Rocket 4.4 01:16:48 10° W 01:23:17 58° NNW 01:23:17 58° NNW
CZ-3 Stage 3 3.7 08:16:52 64° S 08:18:15 71° SE 08:45:23 10° ENE
ARIANE 5 R/B 3.9 08:24:34 23° ESE 08:24:34 23° ESE 08:25:51 10° ESE
Cosmos 2237 Rocket 4.2 08:29:23 10° SSE 08:33:58 25° ESE 08:38:31 10° NE
CZ-3 R/B 3.6 08:01:30 10° WSW 08:40:06 66° NNW 08:49:26 10° NE
Cosmos 1844 3.8 08:51:30 70° SE 08:51:30 70° SE 08:56:30 10° SSE
Cosmos 614 Rocket 4.3 08:53:41 60° E 08:53:41 60° E 08:58:30 10° SSE
Cosmos 1535 Rocket 4.3 08:57:26 60° N 08:58:41 89° E 09:04:53 10° S
FALCON 9 R/B 3.5 08:56:29 34° NW 09:02:32 64° NNE 09:07:57 10° ESE
Meteor 2-14 Rocket 4.3 09:06:28 10° S 09:12:33 70° W 09:18:37 10° N
ISS -1.0 09:12:35 13° NE 09:13:15 13° NE 09:15:00 10° E
CZ-4C R/B 3.6 09:13:16 41° W 09:14:46 44° WSW 09:23:17 10° S
DMSP 5D-3 F18 (USA 210) 4.5 09:13:08 10° N 09:18:33 78° WNW 09:23:58 10° SSW
SL-16 R/B 2.4 09:15:10 10° S 09:21:18 70° WSW 09:25:08 24° NNW
Centaur AC-112 2.6 09:29:22 52° WSW 09:30:17 83° NNW 09:40:33 10° ENE
Cosmos 1733 Rocket 3.0 09:27:11 16° N 09:30:31 79° E 09:34:50 10° S
Cosmos 1340 Rocket 4.4 09:27:20 10° NNE 09:30:42 32° E 09:34:01 10° SSE
Cosmos 1844 Rocket 3.5 09:33:56 31° WSW 09:33:56 31° WSW 09:38:34 10° SSW
Cosmos 2084 Rocket 4.2 09:33:41 18° N 09:36:36 48° ENE 09:40:36 10° SE
GPS 2-15 Rocket1 3.0 09:37:01 43° WNW 09:38:32 83° SSW 09:43:18 10° ESE
ATLAS CENTAUR R/B 2.7 09:42:51 16° SSW 09:42:51 16° SSW 09:43:47 10° SSW
UNK 3.6 09:38:58 10° SSE 09:43:29 89° ENE 09:47:59 10° NNW
ATLAS 2A CENTAUR R/B 4.0 09:44:11 12° N 09:45:38 15° NE 09:48:22 10° ENE
Cosmos 1606 3.3 09:45:12 10° NNE 09:47:43 37° E 09:50:15 10° SSE
Cosmos 1328 3.9 09:44:44 10° SSW 09:48:08 41° W 09:50:07 21° NNW
IRS-1D 3.3 09:47:24 10° N 09:52:16 69° WNW 09:57:10 10° SSW
Cosmos 2100 Rocket 4.1 09:51:16 10° N 09:57:26 83° E 10:03:40 10° S
Cosmos 1703 Rocket 3.8 09:53:48 10° SSW 09:57:53 43° W 10:02:00 10° NNW
Cosmos 1980 4.3 09:56:33 10° SW 10:01:28 31° WNW 10:06:24 10° N
SWIFT 3.6 10:05:07 16° NW 10:06:24 19° N 10:08:54 10° NE
USA 306 2.8 10:10:44 17° NNW 10:10:44 17° NNW 10:11:58 10° N
Cosmos 921 Rocket 3.0 10:10:33 10° NNW 10:14:57 73° W 10:19:18 10° S
Skynet4D Del rocket 4.2 10:09:46 10° SW 10:15:58 64° SSE 10:21:29 10° ENE
Cosmos 2237 Rocket 3.2 10:13:18 10° WSW 10:17:43 23° WNW 10:22:08 10° NNW
Cosmos 1459 Rocket 4.0 10:11:48 10° N 10:18:04 71° W 10:24:17 10° S
USA 229 DEB 3.6 10:13:35 10° SSW 10:19:08 70° ESE 10:24:51 10° NNE
USA 229 3.6 10:13:47 10° SSW 10:19:19 69° ESE 10:25:01 10° NNE
Milstar 3 Cent rocket 4.3 10:00:42 12° WNW 10:19:50 78° NNE 10:28:46 10° ESE
Cosmos 2292 Rocket 3.8 10:18:16 10° SW 10:21:05 29° W 10:24:24 10° NNW
Cosmos 1269 Rocket 4.5 10:18:22 10° N 10:23:35 67° ENE 10:28:49 10° SSE
Cosmos 1725 Rocket 4.1 10:22:45 10° N 10:29:04 90° ENE 10:35:21 10° S
Cosmos 1624 Rocket 4.0 10:24:12 10° SSW 10:29:22 67° WNW 10:34:30 10° N
Cosmos 2278 Rocket 4.3 10:28:07 10° NNE 10:32:53 28° ENE 10:37:38 10° SE
Cosmos 1802 Rocket 4.0 10:31:09 10° NNW 10:37:20 65° W 10:43:27 10° S
